This is the latest recevied weather packets stored in our database for station/object KB4NWJ. If no packets are shown the sender has not sent any weather packets the latest 10 day(s).
| Time | Temp. | Humidity | Pressure | Rain* | Wind** | Luminosity | Snow |
|---|---|---|---|---|---|---|---|
| 1777447491 | 16.67° C | 99% | 1018.2 hPa | 6.1 mm | - | 0 W/m² | - |
| 1777447187 | 16.67° C | 99% | 1018.2 hPa | 6.1 mm | - | 0 W/m² | - |
| 1777446887 | 16.67° C | 99% | 1018.1 hPa | 7.87 mm | - | 0 W/m² | - |
| 1777446583 | 16.67° C | 99% | 1018.1 hPa | 7.87 mm | - | 0 W/m² | - |
| 1777446279 | 16.67° C | 99% | 1018.2 hPa | 7.87 mm | - | 0 W/m² | - |
| 1777445976 | 16.67° C | 99% | 1018.5 hPa | 7.87 mm | - | 0 W/m² | - |
| 1777445672 | 16.11° C | 99% | 1018.3 hPa | 6.1 mm | - | 0 W/m² | - |
| 1777445367 | 16.11° C | 99% | 1018.1 hPa | 4.32 mm | - | 0 W/m² | - |
| 1777445065 | 16.11° C | 99% | 1017.9 hPa | 4.83 mm | - | 0 W/m² | - |
| 1777444761 | 16.11° C | 99% | 1017.5 hPa | 4.83 mm | - | 0 W/m² | - |
| 1777444456 | 16.11° C | 99% | 1017.7 hPa | 3.05 mm | - | 0 W/m² | - |
| 1777444154 | 16.11° C | 99% | 1017.8 hPa | 3.05 mm | - | 0 W/m² | - |
| 1777443850 | 16.11° C | 99% | 1017.6 hPa | 3.56 mm | - | 0 W/m² | - |
| 1777443546 | 16.11° C | 99% | 1017.2 hPa | 3.05 mm | - | 0 W/m² | - |
| 1777443242 | 16.11° C | 99% | 1017.5 hPa | 3.05 mm | - | 0 W/m² | - |
| 1777442940 | 16.11° C | 99% | 1017.3 hPa | 3.05 mm | - | 0 W/m² | - |
| 1777442636 | 16.11° C | 99% | 1017.2 hPa | 1.27 mm | - | 0 W/m² | - |
| 1777442336 | 16.11° C | 99% | 1017.4 hPa | 0 mm | - | 0 W/m² | - |
| 1777442034 | 16.11° C | 99% | 1017.1 hPa | 0 mm | - | 0 W/m² | - |
| 1777441728 | 16.11° C | 99% | 1016.9 hPa | 0 mm | - | 0 W/m² | - |
| 1777441424 | 16.11° C | 99% | 1016.9 hPa | 0 mm | - | 0 W/m² | - |
| 1777441119 | 16.11° C | 99% | 1016.8 hPa | 0 mm | - | 0 W/m² | - |
| 1777440815 | 16.11° C | 99% | 1016.6 hPa | 0 mm | - | 0 W/m² | - |
| 1777440511 | 16.11° C | 99% | 1016.5 hPa | 0 mm | - | 0 W/m² | - |
| 1777440207 | 16.11° C | 99% | 1016.4 hPa | 0 mm | - | 0 W/m² | - |
* Rain latest hour (hover to see other rain measurements)
** Current wind speed in m/s (hover to see current wind gust speed)